TURKSAT 5A

Last updated on Sat Sep 05 2026 00:03:06 GMT+0000 (Coordinated Universal Time)

1 47306U 21001A 26247.60200002 .00000147 00000+0 00000+0 0 9995 2 47306 0.0159 117.9780 0000128 180.5059 292.8941 1.00271880 20766
UTC large
Height (km)
Speed (km/s)
/
Latitude / Longitude
Inclination (degrees)
Orbital Period (minutes)
Azimuth
Elevation
Range (km)
Doppler Factor

Next 0 passes for location: London (51.5072 / 0.1276)

No passes found over London.
TURKSAT 5A